EZY15WP EGGW-LEPA

Flight info

Callsign EZY15WP
Flight time 2h 9m
Altitude 35000
Route RODNI N27 ICTAM Q63 CPT N859 VAPID UN859 SOPIL DCT BALAN DCT EVPOK DCT NARAK DCT GAI DCT LOMRA DCT ROCAN DCT IBRAP DCT LUKEV DCT LORES
Aircraft A320/M-SDE2E3FGHIJ1RWXYZ/LB1

Departure

Time 2026-05-06 14:02
Airport London Luton Airport (EGGW)

Arrival

Time 2026-05-06 16:11
Airport Palma de Mallorca Airport (LEPA)
Time Latitude Longitude Altitude Speed Heading
2026-05-06 13:27 51.87988 -0.37864 524 ft 0 kts 128°
2026-05-06 13:53 51.87991 -0.37871 523 ft 2 kts 128°
2026-05-06 13:54 51.88003 -0.37895 523 ft 3 kts 128°
2026-05-06 13:54 51.88013 -0.37917 523 ft 3 kts 153°
2026-05-06 13:54 51.88028 -0.37919 523 ft 3 kts 210°
2026-05-06 13:54 51.88042 -0.37903 523 ft 2 kts 218°
2026-05-06 13:55 51.88052 -0.37891 523 ft 3 kts 218°
2026-05-06 13:55 51.88058 -0.37883 523 ft 0 kts 218°
2026-05-06 13:57 51.88054 -0.37888 523 ft 3 kts 218°
2026-05-06 13:57 51.88022 -0.37929 523 ft 9 kts 218°
2026-05-06 13:58 51.87972 -0.37989 523 ft 9 kts 211°
2026-05-06 13:58 51.87898 -0.38013 523 ft 12 kts 175°
2026-05-06 13:58 51.87822 -0.37957 523 ft 14 kts 139°
2026-05-06 13:58 51.87765 -0.37794 523 ft 18 kts 114°
2026-05-06 13:59 51.87711 -0.37609 522 ft 19 kts 114°
2026-05-06 13:59 51.87621 -0.37462 522 ft 19 kts 165°
2026-05-06 13:59 51.87511 -0.37516 522 ft 16 kts 233°
2026-05-06 13:59 51.87479 -0.37677 522 ft 14 kts 255°
2026-05-06 14:00 51.87452 -0.37840 523 ft 17 kts 255°
2026-05-06 14:00 51.87413 -0.38015 523 ft 15 kts 229°
2026-05-06 14:00 51.87338 -0.38094 523 ft 11 kts 206°
2026-05-06 14:00 51.87265 -0.38090 523 ft 14 kts 135°
2026-05-06 14:01 51.87271 -0.37940 523 ft 15 kts 74°
2026-05-06 14:01 51.87330 -0.37610 522 ft 63 kts 74°
2026-05-06 14:01 51.87519 -0.36533 522 ft 133 kts 73°
2026-05-06 14:01 51.87795 -0.34852 841 ft 157 kts 72°
2026-05-06 14:02 51.88065 -0.33164 1846 ft 153 kts 71°
2026-05-06 14:02 51.88348 -0.31548 2461 ft 152 kts 69°
2026-05-06 14:02 51.88674 -0.29796 2753 ft 174 kts 68°
2026-05-06 14:02 51.89048 -0.27803 3041 ft 197 kts 70°
2026-05-06 14:03 51.89147 -0.25469 3334 ft 225 kts 99°
2026-05-06 14:03 51.88285 -0.23190 3647 ft 258 kts 139°
2026-05-06 14:03 51.86607 -0.22035 3963 ft 277 kts 173°
2026-05-06 14:03 51.84740 -0.22535 4002 ft 275 kts 209°
2026-05-06 14:04 51.83423 -0.24671 4386 ft 272 kts 248°
2026-05-06 14:04 51.82810 -0.27577 4884 ft 273 kts 256°
2026-05-06 14:04 51.82274 -0.30507 5022 ft 273 kts 256°
2026-05-06 14:04 51.81734 -0.33473 5809 ft 275 kts 255°
2026-05-06 14:05 51.81322 -0.36480 6721 ft 275 kts 265°
2026-05-06 14:05 51.81216 -0.39574 7570 ft 276 kts 272°
2026-05-06 14:05 51.81234 -0.42680 8451 ft 278 kts 269°
2026-05-06 14:05 51.81080 -0.44744 9050 ft 280 kts 263°
2026-05-06 14:06 51.80589 -0.48857 10192 ft 283 kts 260°
2026-05-06 14:06 51.80142 -0.52046 10585 ft 302 kts 259°
2026-05-06 14:06 51.79634 -0.55460 10891 ft 321 kts 258°
2026-05-06 14:06 51.79090 -0.58995 11523 ft 327 kts 258°
2026-05-06 14:07 51.78531 -0.62573 12267 ft 330 kts 257°
2026-05-06 14:07 51.78157 -0.64961 12745 ft 332 kts 257°
2026-05-06 14:07 51.77587 -0.68598 13490 ft 335 kts 257°
2026-05-06 14:07 51.77016 -0.72270 14169 ft 339 kts 257°
2026-05-06 14:08 51.76102 -0.77111 15002 ft 344 kts 248°
2026-05-06 14:08 51.74900 -0.80484 15643 ft 350 kts 235°
2026-05-06 14:08 51.73271 -0.83420 16275 ft 354 kts 227°
2026-05-06 14:08 51.71519 -0.86232 16916 ft 357 kts 227°
2026-05-06 14:09 51.69756 -0.89070 17544 ft 359 kts 227°
2026-05-06 14:09 51.68581 -0.90959 17956 ft 361 kts 227°
2026-05-06 14:09 51.66793 -0.93833 18531 ft 364 kts 227°
2026-05-06 14:09 51.64988 -0.96725 18897 ft 367 kts 226°
2026-05-06 14:10 51.63181 -0.99619 18987 ft 366 kts 226°
2026-05-06 14:10 51.60791 -1.03445 19005 ft 366 kts 226°
2026-05-06 14:10 51.58977 -1.06340 19321 ft 369 kts 226°
2026-05-06 14:10 51.57746 -1.08303 19720 ft 370 kts 226°
2026-05-06 14:11 51.55913 -1.11222 20291 ft 372 kts 226°
2026-05-06 14:11 51.53974 -1.13909 20828 ft 376 kts 217°
2026-05-06 14:11 51.51710 -1.16070 21368 ft 381 kts 207°
2026-05-06 14:11 51.49206 -1.17530 21901 ft 386 kts 195°
2026-05-06 14:12 51.46528 -1.18099 22421 ft 393 kts 182°
2026-05-06 14:12 51.43798 -1.17632 22933 ft 399 kts 168°
2026-05-06 14:12 51.41168 -1.16121 23434 ft 405 kts 157°
2026-05-06 14:12 51.38609 -1.14204 23848 ft 407 kts 157°
2026-05-06 14:13 51.36032 -1.12288 24263 ft 409 kts 157°
2026-05-06 14:13 51.33442 -1.10382 24680 ft 411 kts 157°
2026-05-06 14:13 51.30827 -1.08472 25060 ft 414 kts 157°
2026-05-06 14:13 51.28202 -1.06562 25450 ft 416 kts 157°
2026-05-06 14:14 51.25595 -1.04665 25816 ft 418 kts 157°
2026-05-06 14:14 51.22942 -1.02736 26184 ft 420 kts 157°
2026-05-06 14:14 51.20273 -1.00798 26544 ft 423 kts 157°
2026-05-06 14:14 51.17589 -0.98850 26901 ft 425 kts 157°
2026-05-06 14:15 51.14895 -0.96888 27254 ft 427 kts 157°
2026-05-06 14:15 51.12187 -0.94916 27608 ft 429 kts 157°
2026-05-06 14:15 51.09463 -0.92935 27949 ft 431 kts 157°
2026-05-06 14:15 51.06725 -0.90947 28297 ft 433 kts 157°
2026-05-06 14:16 51.03976 -0.88958 28631 ft 435 kts 157°
2026-05-06 14:16 51.01249 -0.86992 28953 ft 437 kts 157°
2026-05-06 14:16 50.98472 -0.84988 29269 ft 439 kts 157°
2026-05-06 14:16 50.95687 -0.82976 29581 ft 441 kts 156°
2026-05-06 14:17 50.92886 -0.80954 29883 ft 443 kts 157°
2026-05-06 14:17 50.90073 -0.78938 30147 ft 445 kts 157°
2026-05-06 14:17 50.87246 -0.76920 30394 ft 446 kts 157°
2026-05-06 14:17 50.84487 -0.74640 30620 ft 449 kts 149°
2026-05-06 14:18 50.81857 -0.71952 30848 ft 451 kts 148°
2026-05-06 14:18 50.79221 -0.69253 31109 ft 451 kts 148°
2026-05-06 14:18 50.76625 -0.66603 31438 ft 450 kts 148°
2026-05-06 14:18 50.73995 -0.63927 31758 ft 449 kts 148°
2026-05-06 14:19 50.71370 -0.61257 32062 ft 449 kts 148°
2026-05-06 14:19 50.68746 -0.58596 32371 ft 448 kts 148°
2026-05-06 14:19 50.66125 -0.55944 32674 ft 448 kts 148°
2026-05-06 14:19 50.63504 -0.53299 32977 ft 447 kts 148°
2026-05-06 14:20 50.60885 -0.50659 33280 ft 447 kts 148°
2026-05-06 14:20 50.58269 -0.48026 33586 ft 446 kts 148°
2026-05-06 14:20 50.55655 -0.45396 33905 ft 445 kts 148°
2026-05-06 14:20 50.53083 -0.42808 34170 ft 445 kts 148°
2026-05-06 14:21 50.50474 -0.40189 34402 ft 445 kts 148°
2026-05-06 14:21 50.47868 -0.37578 34631 ft 445 kts 148°
2026-05-06 14:21 50.45257 -0.34969 34846 ft 445 kts 148°
2026-05-06 14:21 50.42645 -0.32362 34957 ft 444 kts 148°
2026-05-06 14:22 50.37477 -0.27202 34983 ft 438 kts 148°
2026-05-06 14:22 50.32374 -0.22113 34974 ft 438 kts 148°
2026-05-06 14:23 50.27231 -0.17008 34981 ft 438 kts 148°
2026-05-06 14:23 50.22085 -0.11920 34985 ft 438 kts 148°
2026-05-06 14:24 50.16938 -0.06842 34975 ft 438 kts 148°
2026-05-06 14:24 50.11813 -0.01833 34975 ft 437 kts 152°
2026-05-06 14:25 50.06165 0.01523 34979 ft 435 kts 167°
2026-05-06 14:25 50.00290 0.03803 34976 ft 435 kts 167°
2026-05-06 14:26 49.94416 0.06117 34974 ft 436 kts 167°
2026-05-06 14:26 49.88578 0.08418 34976 ft 436 kts 167°
2026-05-06 14:27 49.82700 0.10732 34976 ft 436 kts 167°
2026-05-06 14:27 49.76818 0.13034 34981 ft 436 kts 167°
2026-05-06 14:28 49.70932 0.15320 34985 ft 436 kts 167°
2026-05-06 14:28 49.65044 0.17623 34994 ft 437 kts 166°
2026-05-06 14:29 49.59209 0.19983 34991 ft 437 kts 166°
2026-05-06 14:29 49.53333 0.22373 34991 ft 437 kts 166°
2026-05-06 14:30 49.47458 0.24742 34999 ft 436 kts 166°
2026-05-06 14:30 49.41581 0.27089 34962 ft 436 kts 166°
2026-05-06 14:31 49.35743 0.29415 34963 ft 436 kts 166°
2026-05-06 14:31 49.29872 0.31755 34972 ft 436 kts 166°
2026-05-06 14:32 49.24014 0.34192 34962 ft 436 kts 165°
2026-05-06 14:32 49.18173 0.36692 34965 ft 436 kts 165°
2026-05-06 14:33 49.12370 0.39158 34957 ft 436 kts 165°
2026-05-06 14:33 49.06526 0.41612 34961 ft 436 kts 165°
2026-05-06 14:34 49.00680 0.44060 34952 ft 436 kts 165°
2026-05-06 14:34 48.94835 0.46489 34951 ft 435 kts 165°
2026-05-06 14:35 48.88987 0.48910 34956 ft 435 kts 165°
2026-05-06 14:35 48.83181 0.51320 34948 ft 435 kts 165°
2026-05-06 14:36 48.77335 0.53728 34955 ft 435 kts 165°
2026-05-06 14:36 48.71473 0.56050 34949 ft 435 kts 166°
2026-05-06 14:37 48.65643 0.58299 34951 ft 435 kts 166°
2026-05-06 14:37 48.59773 0.60577 34948 ft 435 kts 166°
2026-05-06 14:38 48.53906 0.62874 34950 ft 436 kts 166°
2026-05-06 14:38 48.48045 0.65194 34955 ft 436 kts 165°
2026-05-06 14:39 48.42190 0.67592 34948 ft 436 kts 165°
2026-05-06 14:39 48.36379 0.69980 34941 ft 436 kts 165°
2026-05-06 14:40 48.30522 0.72357 34949 ft 436 kts 165°
2026-05-06 14:40 48.24659 0.74717 34949 ft 436 kts 165°
2026-05-06 14:41 48.18787 0.77041 34949 ft 437 kts 166°
2026-05-06 14:41 48.12911 0.79332 34933 ft 436 kts 166°
2026-05-06 14:42 48.07076 0.81614 34931 ft 436 kts 166°
2026-05-06 14:42 48.01201 0.83914 34938 ft 436 kts 166°
2026-05-06 14:43 47.95325 0.86212 34929 ft 436 kts 166°
2026-05-06 14:43 47.89448 0.88506 34934 ft 437 kts 166°
2026-05-06 14:44 47.83608 0.90775 34928 ft 437 kts 166°
2026-05-06 14:45 47.74791 0.94192 34930 ft 436 kts 166°
2026-05-06 14:45 47.68911 0.96453 34928 ft 437 kts 166°
2026-05-06 14:46 47.63029 0.98712 34929 ft 437 kts 166°
2026-05-06 14:46 47.57182 1.00961 34930 ft 437 kts 166°
2026-05-06 14:47 47.51299 1.03222 34938 ft 437 kts 166°
2026-05-06 14:47 47.45418 1.05478 34931 ft 437 kts 167°
2026-05-06 14:48 47.39412 1.06381 34931 ft 435 kts 182°
2026-05-06 14:48 47.33364 1.06220 34929 ft 435 kts 182°
2026-05-06 14:49 47.27350 1.06073 34930 ft 435 kts 181°
2026-05-06 14:49 47.21302 1.05941 34930 ft 435 kts 181°
2026-05-06 14:50 47.15250 1.05803 34933 ft 435 kts 181°
2026-05-06 14:50 47.09197 1.05662 34933 ft 435 kts 182°
2026-05-06 14:51 47.03186 1.05515 34939 ft 435 kts 182°
2026-05-06 14:51 46.97142 1.05317 34933 ft 435 kts 182°
2026-05-06 14:52 46.91095 1.05035 34934 ft 434 kts 183°
2026-05-06 14:52 46.85057 1.04747 34936 ft 434 kts 182°
2026-05-06 14:53 46.79057 1.04488 34937 ft 434 kts 182°
2026-05-06 14:53 46.73012 1.04244 34935 ft 434 kts 182°
2026-05-06 14:54 46.66974 1.04000 34931 ft 434 kts 182°
2026-05-06 14:54 46.60934 1.03738 34929 ft 434 kts 183°
2026-05-06 14:55 46.54895 1.03475 34928 ft 434 kts 182°
2026-05-06 14:55 46.48924 1.04223 34930 ft 436 kts 168°
2026-05-06 14:56 46.43012 1.06209 34921 ft 436 kts 168°
2026-05-06 14:56 46.37102 1.08188 34926 ft 436 kts 168°
2026-05-06 14:57 46.31189 1.10167 34915 ft 436 kts 168°
2026-05-06 14:57 46.25314 1.12116 34919 ft 436 kts 168°
2026-05-06 14:58 46.19396 1.14080 34909 ft 436 kts 168°
2026-05-06 14:58 46.13480 1.16038 34909 ft 436 kts 168°
2026-05-06 14:59 46.07569 1.17989 34895 ft 436 kts 168°
2026-05-06 14:59 46.01654 1.19937 34886 ft 436 kts 168°
2026-05-06 15:00 45.95780 1.21874 34875 ft 436 kts 168°
2026-05-06 15:00 45.89867 1.23823 34873 ft 436 kts 168°
2026-05-06 15:01 45.83952 1.25756 34879 ft 436 kts 168°
2026-05-06 15:01 45.78036 1.27684 34878 ft 436 kts 169°
2026-05-06 15:02 45.72160 1.29597 34886 ft 436 kts 169°
2026-05-06 15:02 45.66243 1.31530 34890 ft 436 kts 169°
2026-05-06 15:03 45.60326 1.33453 34895 ft 436 kts 169°
2026-05-06 15:03 45.54404 1.35368 34896 ft 436 kts 169°
2026-05-06 15:04 45.48522 1.37269 34902 ft 436 kts 169°
2026-05-06 15:04 45.42602 1.39184 34894 ft 436 kts 169°
2026-05-06 15:05 45.36679 1.41094 34901 ft 436 kts 169°
2026-05-06 15:05 45.30760 1.42991 34904 ft 436 kts 169°
2026-05-06 15:06 45.24877 1.44871 34904 ft 436 kts 169°
2026-05-06 15:06 45.18958 1.46767 34905 ft 436 kts 169°
2026-05-06 15:07 45.13038 1.48660 34904 ft 436 kts 169°
2026-05-06 15:07 45.07120 1.50548 34904 ft 436 kts 169°
2026-05-06 15:08 45.01206 1.52429 34905 ft 436 kts 169°
2026-05-06 15:08 44.95327 1.54285 34906 ft 436 kts 169°
2026-05-06 15:09 44.89416 1.56154 34903 ft 435 kts 169°
2026-05-06 15:09 44.83504 1.58015 34901 ft 435 kts 170°
2026-05-06 15:10 44.77594 1.59879 34910 ft 435 kts 170°
2026-05-06 15:10 44.71728 1.61727 34911 ft 435 kts 170°
2026-05-06 15:11 44.65828 1.63577 34910 ft 434 kts 170°
2026-05-06 15:11 44.59934 1.65423 34917 ft 434 kts 170°
2026-05-06 15:12 44.54047 1.67265 34918 ft 433 kts 170°
2026-05-06 15:12 44.48170 1.69099 34924 ft 433 kts 171°
2026-05-06 15:13 44.42336 1.70921 34926 ft 432 kts 171°
2026-05-06 15:13 44.36474 1.72753 34925 ft 431 kts 171°
2026-05-06 15:14 44.30617 1.74562 34932 ft 431 kts 171°
2026-05-06 15:14 44.24747 1.76133 34937 ft 429 kts 174°
2026-05-06 15:15 44.18893 1.77354 34940 ft 428 kts 175°
2026-05-06 15:15 44.13006 1.78554 34929 ft 428 kts 175°
2026-05-06 15:16 44.07125 1.79816 34939 ft 428 kts 175°
2026-05-06 15:16 44.01248 1.81121 34937 ft 427 kts 175°
2026-05-06 15:17 43.95420 1.82411 34935 ft 426 kts 176°
2026-05-06 15:17 43.89542 1.83233 34943 ft 423 kts 181°
2026-05-06 15:18 43.83671 1.83667 34944 ft 422 kts 182°
2026-05-06 15:18 43.77808 1.84118 34949 ft 422 kts 181°
2026-05-06 15:19 43.71988 1.84661 34955 ft 422 kts 181°
2026-05-06 15:19 43.66133 1.85250 34962 ft 422 kts 181°
2026-05-06 15:20 43.60286 1.85835 34957 ft 421 kts 181°
2026-05-06 15:20 43.54445 1.86396 34959 ft 421 kts 181°
2026-05-06 15:21 43.48606 1.86951 34957 ft 421 kts 181°
2026-05-06 15:21 43.42814 1.87507 34948 ft 420 kts 181°
2026-05-06 15:22 43.36993 1.88060 34944 ft 419 kts 181°
2026-05-06 15:22 43.31176 1.88619 34936 ft 419 kts 181°
2026-05-06 15:23 43.25365 1.89169 34937 ft 418 kts 181°
2026-05-06 15:23 43.19602 1.89721 34936 ft 418 kts 182°
2026-05-06 15:24 43.13805 1.90279 34941 ft 417 kts 181°
2026-05-06 15:24 43.08017 1.90830 34944 ft 417 kts 182°
2026-05-06 15:25 43.02238 1.91372 34950 ft 416 kts 182°
2026-05-06 15:25 42.96499 1.91918 34952 ft 416 kts 182°
2026-05-06 15:26 42.90735 1.92461 34955 ft 415 kts 182°
2026-05-06 15:26 42.84978 1.93005 34955 ft 414 kts 182°
2026-05-06 15:27 42.79229 1.93548 34961 ft 414 kts 182°
2026-05-06 15:27 42.73491 1.94090 34960 ft 413 kts 182°
2026-05-06 15:28 42.67808 1.94680 34952 ft 415 kts 178°
2026-05-06 15:28 42.62145 1.96545 34942 ft 420 kts 172°
2026-05-06 15:29 42.56502 1.98584 34937 ft 420 kts 172°
2026-05-06 15:29 42.50858 2.00609 34931 ft 420 kts 172°
2026-05-06 15:30 42.45249 2.02617 34925 ft 420 kts 172°
2026-05-06 15:30 42.39610 2.04637 34918 ft 419 kts 172°
2026-05-06 15:31 42.33977 2.06644 34913 ft 419 kts 172°
2026-05-06 15:31 42.28350 2.08648 34903 ft 418 kts 172°
2026-05-06 15:32 42.19948 2.11624 34893 ft 418 kts 172°
2026-05-06 15:32 42.14322 2.13617 34893 ft 418 kts 172°
2026-05-06 15:33 42.08701 2.15602 34893 ft 417 kts 172°
2026-05-06 15:33 42.03085 2.17581 34893 ft 417 kts 172°
2026-05-06 15:34 41.97511 2.19546 34887 ft 416 kts 172°
2026-05-06 15:34 41.91900 2.21519 34888 ft 417 kts 173°
2026-05-06 15:35 41.86289 2.23480 34889 ft 417 kts 173°
2026-05-06 15:35 41.80680 2.25442 34890 ft 416 kts 173°
2026-05-06 15:36 41.75073 2.27399 34892 ft 416 kts 173°
2026-05-06 15:36 41.69506 2.29348 34894 ft 416 kts 173°
2026-05-06 15:37 41.63902 2.31301 34891 ft 416 kts 173°
2026-05-06 15:37 41.58303 2.33243 34898 ft 416 kts 173°
2026-05-06 15:38 41.52706 2.35182 34895 ft 415 kts 173°
2026-05-06 15:38 41.47151 2.37099 34900 ft 415 kts 173°
2026-05-06 15:39 41.41557 2.39030 34907 ft 415 kts 173°
2026-05-06 15:39 41.35968 2.40974 34915 ft 415 kts 173°
2026-05-06 15:40 41.30382 2.42908 34912 ft 415 kts 173°
2026-05-06 15:40 41.24797 2.44838 34909 ft 414 kts 173°
2026-05-06 15:41 41.19219 2.46750 34912 ft 414 kts 174°
2026-05-06 15:41 41.13680 2.48638 34906 ft 414 kts 174°
2026-05-06 15:42 41.08110 2.50546 34911 ft 413 kts 174°
2026-05-06 15:42 41.02543 2.52450 34917 ft 413 kts 174°
2026-05-06 15:43 40.96977 2.54354 34912 ft 413 kts 174°
2026-05-06 15:43 40.91452 2.56236 34895 ft 412 kts 174°
2026-05-06 15:44 40.88695 2.57177 34521 ft 408 kts 174°
2026-05-06 15:44 40.85965 2.58108 34091 ft 403 kts 174°
2026-05-06 15:44 40.83263 2.59029 33604 ft 399 kts 175°
2026-05-06 15:44 40.80590 2.59942 33103 ft 395 kts 175°
2026-05-06 15:45 40.77943 2.60844 32611 ft 391 kts 175°
2026-05-06 15:45 40.75317 2.61732 32127 ft 388 kts 175°
2026-05-06 15:45 40.72714 2.62608 31654 ft 384 kts 175°
2026-05-06 15:45 40.70167 2.63465 31189 ft 382 kts 175°
2026-05-06 15:46 40.67603 2.64330 30737 ft 379 kts 175°
2026-05-06 15:46 40.65060 2.65187 30281 ft 376 kts 175°
2026-05-06 15:46 40.62534 2.66038 29811 ft 373 kts 174°
2026-05-06 15:46 40.60028 2.66883 29307 ft 371 kts 174°
2026-05-06 15:47 40.57537 2.67723 28798 ft 368 kts 174°
2026-05-06 15:47 40.55061 2.68555 28322 ft 366 kts 174°
2026-05-06 15:47 40.52603 2.69383 27845 ft 364 kts 174°
2026-05-06 15:47 40.50202 2.70314 27376 ft 368 kts 167°
2026-05-06 15:48 40.47880 2.71789 26916 ft 373 kts 159°
2026-05-06 15:48 40.45617 2.73442 26448 ft 371 kts 159°
2026-05-06 15:48 40.43366 2.75081 26002 ft 369 kts 159°
2026-05-06 15:48 40.41126 2.76703 25562 ft 367 kts 159°
2026-05-06 15:49 40.38899 2.78312 25123 ft 364 kts 159°
2026-05-06 15:49 40.36685 2.79911 24691 ft 362 kts 159°
2026-05-06 15:49 40.34484 2.81498 24252 ft 360 kts 159°
2026-05-06 15:49 40.32294 2.83079 23818 ft 358 kts 158°
2026-05-06 15:50 40.30118 2.84654 23387 ft 356 kts 158°
2026-05-06 15:50 40.27956 2.86218 22899 ft 354 kts 158°
2026-05-06 15:50 40.25831 2.87752 22440 ft 352 kts 158°
2026-05-06 15:50 40.23686 2.89277 21987 ft 348 kts 161°
2026-05-06 15:51 40.21419 2.90235 21242 ft 341 kts 180°
2026-05-06 15:51 40.19099 2.90158 20821 ft 329 kts 194°
2026-05-06 15:51 40.16848 2.89729 20422 ft 326 kts 194°
2026-05-06 15:51 40.14613 2.89305 20022 ft 323 kts 194°
2026-05-06 15:52 40.12394 2.88881 19636 ft 321 kts 194°
2026-05-06 15:52 40.10187 2.88456 19235 ft 320 kts 193°
2026-05-06 15:52 40.08022 2.88041 18848 ft 318 kts 193°
2026-05-06 15:52 40.05837 2.87624 18467 ft 317 kts 193°
2026-05-06 15:53 40.03659 2.87203 18055 ft 316 kts 193°
2026-05-06 15:53 40.01493 2.86780 17653 ft 314 kts 193°
2026-05-06 15:53 39.99346 2.86360 17272 ft 311 kts 193°
2026-05-06 15:53 39.97214 2.85946 16901 ft 309 kts 193°
2026-05-06 15:54 39.95096 2.85539 16531 ft 307 kts 193°
2026-05-06 15:54 39.92989 2.85136 16171 ft 305 kts 193°
2026-05-06 15:54 39.90895 2.84735 15813 ft 303 kts 192°
2026-05-06 15:54 39.88812 2.84336 15459 ft 302 kts 192°
2026-05-06 15:55 39.86737 2.83937 15100 ft 301 kts 192°
2026-05-06 15:55 39.84697 2.83545 14756 ft 300 kts 192°
2026-05-06 15:55 39.82637 2.83150 14425 ft 298 kts 192°
2026-05-06 15:55 39.80639 2.82768 14239 ft 283 kts 192°
2026-05-06 15:56 39.78760 2.82158 13996 ft 274 kts 206°
2026-05-06 15:56 39.77145 2.80926 13758 ft 267 kts 221°
2026-05-06 15:56 39.75880 2.79192 13485 ft 264 kts 236°
2026-05-06 15:56 39.74840 2.77221 13105 ft 265 kts 237°
2026-05-06 15:57 39.73798 2.75238 12701 ft 267 kts 237°
2026-05-06 15:57 39.72754 2.73254 12383 ft 262 kts 237°
2026-05-06 15:57 39.71728 2.71308 12005 ft 261 kts 237°
2026-05-06 15:57 39.70707 2.69372 11551 ft 266 kts 237°
2026-05-06 15:58 39.69669 2.67404 11192 ft 266 kts 237°
2026-05-06 15:58 39.68635 2.65446 10760 ft 260 kts 237°
2026-05-06 15:58 39.67606 2.63499 10373 ft 261 kts 237°
2026-05-06 15:58 39.66579 2.61551 9969 ft 262 kts 237°
2026-05-06 15:59 39.65562 2.59626 9478 ft 257 kts 237°
2026-05-06 15:59 39.64557 2.57729 9016 ft 255 kts 237°
2026-05-06 15:59 39.63551 2.55824 8578 ft 257 kts 237°
2026-05-06 15:59 39.62545 2.53921 8224 ft 256 kts 237°
2026-05-06 16:00 39.61554 2.52048 7891 ft 254 kts 237°
2026-05-06 16:00 39.60558 2.50167 7477 ft 253 kts 237°
2026-05-06 16:00 39.59557 2.48281 7116 ft 253 kts 236°
2026-05-06 16:00 39.58552 2.46400 6585 ft 257 kts 235°
2026-05-06 16:01 39.57434 2.44517 6091 ft 266 kts 232°
2026-05-06 16:01 39.56281 2.42636 5644 ft 267 kts 232°
2026-05-06 16:01 39.55129 2.40758 5230 ft 266 kts 232°
2026-05-06 16:01 39.53990 2.38892 5001 ft 259 kts 232°
2026-05-06 16:02 39.52903 2.37099 4993 ft 249 kts 232°
2026-05-06 16:02 39.51840 2.35347 4998 ft 247 kts 232°
2026-05-06 16:02 39.50794 2.33621 4998 ft 247 kts 232°
2026-05-06 16:02 39.49711 2.31893 4993 ft 247 kts 225°
2026-05-06 16:03 39.48255 2.30764 4957 ft 246 kts 195°
2026-05-06 16:03 39.46568 2.30712 4599 ft 244 kts 164°
2026-05-06 16:03 39.45113 2.31785 4200 ft 243 kts 132°
2026-05-06 16:03 39.44354 2.33644 4050 ft 230 kts 101°
2026-05-06 16:04 39.44172 2.35663 3839 ft 223 kts 93°
2026-05-06 16:04 39.44092 2.37659 3541 ft 222 kts 92°
2026-05-06 16:04 39.44027 2.39642 3229 ft 220 kts 92°
2026-05-06 16:04 39.43967 2.41577 3034 ft 217 kts 92°
2026-05-06 16:05 39.43907 2.43530 3000 ft 218 kts 92°
2026-05-06 16:05 39.43849 2.45442 2998 ft 205 kts 92°
2026-05-06 16:05 39.43794 2.47229 2998 ft 194 kts 92°
2026-05-06 16:05 39.43742 2.48954 2999 ft 190 kts 92°
2026-05-06 16:06 39.43706 2.50654 3000 ft 189 kts 85°
2026-05-06 16:06 39.44189 2.52190 3004 ft 188 kts 43°
2026-05-06 16:06 39.45318 2.53026 3007 ft 189 kts 26°
2026-05-06 16:06 39.46358 2.54008 2985 ft 190 kts 47°
2026-05-06 16:07 39.47176 2.55334 2806 ft 187 kts 55°
2026-05-06 16:07 39.47888 2.56728 2580 ft 184 kts 58°
2026-05-06 16:07 39.48566 2.58128 2349 ft 183 kts 58°
2026-05-06 16:07 39.49229 2.59516 2145 ft 178 kts 58°
2026-05-06 16:08 39.49866 2.60854 1880 ft 171 kts 58°
2026-05-06 16:08 39.50472 2.62128 1637 ft 161 kts 58°
2026-05-06 16:08 39.51039 2.63321 1438 ft 151 kts 58°
2026-05-06 16:08 39.51575 2.64450 1247 ft 145 kts 58°
2026-05-06 16:09 39.52095 2.65547 1053 ft 141 kts 58°
2026-05-06 16:09 39.52597 2.66604 869 ft 138 kts 58°
2026-05-06 16:09 39.53096 2.67659 686 ft 136 kts 58°
2026-05-06 16:09 39.53591 2.68703 482 ft 135 kts 58°
2026-05-06 16:10 39.54087 2.69728 286 ft 135 kts 59°
2026-05-06 16:10 39.54568 2.70758 127 ft 133 kts 58°
2026-05-06 16:10 39.55045 2.71772 36 ft 126 kts 58°
2026-05-06 16:10 39.55431 2.72582 30 ft 82 kts 58°
2026-05-06 16:11 39.55644 2.73026 30 ft 41 kts 59°
2026-05-06 16:11 39.55718 2.73294 30 ft 25 kts 88°
2026-05-06 16:11 39.55697 2.73439 30 ft 11 kts 130°
2026-05-06 16:11 39.55649 2.73459 30 ft 7 kts 194°
2026-05-06 16:12 39.55626 2.73433 30 ft 1 kts 233°
2026-05-06 16:12 39.55619 2.73420 30 ft 2 kts 236°
2026-05-06 16:12 39.55614 2.73409 30 ft 1 kts 238°
2026-05-06 16:12 39.55611 2.73404 30 ft 0 kts 239°
2026-05-06 16:13 39.55595 2.73367 30 ft 14 kts 239°
2026-05-06 16:13 39.55545 2.73258 30 ft 10 kts 239°
2026-05-06 16:13 39.55511 2.73184 30 ft 9 kts 238°
2026-05-06 16:13 39.55479 2.73118 30 ft 8 kts 237°
2026-05-06 16:14 39.55450 2.73060 30 ft 7 kts 237°
2026-05-06 16:14 39.55425 2.73010 30 ft 6 kts 236°
2026-05-06 16:14 39.55379 2.72983 30 ft 12 kts 178°
2026-05-06 16:14 39.55355 2.72991 30 ft 6 kts 160°
2026-05-06 16:15 39.55312 2.73022 30 ft 7 kts 147°
2026-05-06 16:15 39.55274 2.73048 30 ft 5 kts 168°
2026-05-06 16:15 39.55239 2.73040 30 ft 5 kts 195°
2026-05-06 16:15 39.55209 2.73030 30 ft 4 kts 195°
2026-05-06 16:16 39.55185 2.73021 30 ft 3 kts 196°
2026-05-06 16:16 39.55166 2.73014 30 ft 2 kts 196°
2026-05-06 16:16 39.55159 2.73011 30 ft 0 kts 196°